This demonstration page uses our WeatherBlox Daily Observations layout. Learn more.

Hourly Observations for January 28, 2015

Temp ( °F °C ) Dew Point ( °F °C ) Humidity (%) Winds ( mph kmh ) Pressure ( in mb ) Visibility ( mi km ) Precip ( " mm )
12:15 am 00:15 Clear 39 4 29 -1.5 68 68 Calm 29.94 1014 10 16.0934 0 0
12:35 am 00:35 Clear 42 5.3 30 -0.9 65 65 S 7 11 29.91 1013 10 16.0934 0 0
12:55 am 00:55 Clear 40 4.2 30 -1.1 69 69 SSE 7 11 29.94 1014 10 16.0934 0 0
1:15 am 01:15 Clear 36 2.3 29 -1.8 75 75 Calm 29.91 1013 10 16.0934 0 0
1:35 am 01:35 Clear 36 2.2 28 -2 74 74 SSE 5 7 29.91 1013 10 16.0934 0 0
1:55 am 01:55 Clear 35 1.6 28 -2.1 77 77 SSE 5 7 29.91 1013 10 16.0934 0 0
2:15 am 02:15 Clear 37 2.6 29 -1.6 74 74 S 5 7 29.91 1013 10 16.0934 0 0
2:35 am 02:35 Clear 34 0.9 28 -2.1 81 81 Calm 29.88 1012 10 16.0934 0 0
2:55 am 02:55 Clear 31 -0.4 27 -2.9 83 83 SSW 3 6 29.91 1013 10 16.0934 0 0
3:15 am 03:15 Clear 32 0 27 -2.8 82 82 SW 3 6 29.91 1013 10 16.0934 0 0
3:35 am 03:35 Clear 31 -0.8 26 -3.3 83 83 Calm 29.91 1013 10 16.0934 0 0
3:55 am 03:55 Clear 29 -1.6 25 -3.8 85 85 Calm 29.91 1013 10 16.0934 0 0
4:15 am 04:15 Clear 30 -1 27 -3 86 86 NNW 5 7 29.88 1012 10 16.0934 0 0
4:35 am 04:35 Clear 31 -0.6 27 -3 84 84 NW 5 7 29.91 1013 10 16.0934 0 0
4:55 am 04:55 Clear 31 -0.4 28 -2.1 88 88 NW 8 13 29.91 1013 10 16.0934 0 0
5:15 am 05:15 Clear 33 0.4 28 -2.2 83 83 NW 7 11 29.91 1013 10 16.0934 0 0
5:35 am 05:35 Clear 31 -0.6 27 -2.8 85 85 WNW 8 13 29.91 1013 10 16.0934 0 0
5:55 am 05:55 Clear 30 -1.1 26 -3.5 84 84 NW 9 15 29.91 1013 10 16.0934 0 0
6:15 am 06:15 Clear 33 0.4 28 -2 84 84 NW 5 7 29.88 1012 10 16.0934 0 0
6:35 am 06:35 Clear 32 0 28 -2.5 83 83 WNW 8 13 29.88 1012 10 16.0934 0 0
6:55 am 06:55 Clear 33 0.4 28 -2.5 81 81 WNW 9 15 29.88 1012 10 16.0934 0 0
7:15 am 07:15 Clear 37 2.6 28 -2 72 72 NW 10 17 29.85 1011 10 16.0934 0 0
7:35 am 07:35 Clear 36 2.3 28 -2.3 72 72 NW 9 15 29.85 1011 10 16.0934 0 0
7:55 am 07:55 Sunny 34 1.1 28 -2.4 78 78 NW 8 13 29.85 1011 10 16.0934 0 0
8:15 am 08:15 Sunny 35 1.9 29 -1.9 76 76 NW 7 11 29.85 1011 10 16.0934 0 0
8:35 am 08:35 Sunny 37 2.8 31 -0.6 79 79 NW 7 11 29.85 1011 10 16.0934 0 0
8:55 am 08:55 Sunny 44 6.4 34 1.3 70 70 NW 9 15 29.83 1010 10 16.0934 0 0
9:15 am 09:15 Sunny 49 9.3 35 1.5 59 59 NW 14 22 29.83 1010 10 16.0934 0 0
9:35 am 09:35 Sunny 51 10.8 34 0.9 51 51 NW 16 26 29.8 1009 10 16.0934 0 0
9:55 am 09:55 Sunny 52 11.3 33 0.6 48 48 NW 15 24 29.8 1009 10 16.0934 0 0
10:15 am 10:15 Sunny 55 12.6 32 0 42 42 NW 13 20 29.8 1009 10 16.0934 0 0
10:35 am 10:35 Sunny 56 13.5 32 -0.1 40 40 NW 15 24 29.74 1007 10 16.0934 0 0
10:55 am 10:55 Sunny 59 14.8 31 -0.3 36 36 NW 21 33 29.77 1008 10 16.0934 0 0
11:15 am 11:15 Sunny 60 15.7 31 -0.4 34 34 WNW 23 37 29.74 1007 10 16.0934 0 0
11:35 am 11:35 Sunny 60 15.6 31 -0.4 34 34 NW 22 35 29.74 1007 10 16.0934 0 0
11:55 am 11:55 Sunny 60 15.8 32 -0.1 34 34 WNW 21 33 29.74 1007 10 16.0934 0 0
12:15 pm 12:15 Sunny 63 17 32 -0.1 32 32 NW 21 33 29.74 1007 10 16.0934 0 0
12:35 pm 12:35 Sunny 64 17.5 32 -0.2 30 30 NW 21 33 29.71 1006 10 16.0934 0 0
12:55 pm 12:55 Sunny 65 18.1 31 -0.3 29 29 NW 24 39 29.71 1006 10 16.0934 0 0
1:15 pm 13:15 Sunny 65 18.6 32 -0.2 28 28 WNW 24 39 29.71 1006 10 16.0934 0 0
1:35 pm 13:35 Sunny 66 18.8 32 -0.1 28 28 WNW 20 31 29.71 1006 10 16.0934 0 0
1:55 pm 13:55 Sunny 68 19.8 31 -0.5 26 26 NW 20 31 29.68 1005 10 16.0934 0 0
2:15 pm 14:15 Sunny 68 20 31 -0.6 25 25 WNW 23 37 29.68 1005 10 16.0934 0 0
2:35 pm 14:35 Sunny 68 19.9 31 -0.5 25 25 NW 24 39 29.68 1005 10 16.0934 0 0
2:55 pm 14:55 Sunny 68 20.1 32 -0.2 26 26 WNW 22 35 29.68 1005 10 16.0934 0 0
3:15 pm 15:15 Sunny 68 19.9 31 -0.5 25 25 NW 20 31 29.71 1006 10 16.0934 0 0
3:35 pm 15:35 Sunny 67 19.6 31 -0.7 26 26 NW 22 35 29.71 1006 10 16.0934 0 0
3:55 pm 15:55 Sunny 67 19.3 31 -0.6 26 26 WNW 21 33 29.71 1006 10 16.0934 0 0
4:15 pm 16:15 Sunny 66 19.1 31 -0.5 27 27 NW 22 35 29.71 1006 10 16.0934 0 0
4:35 pm 16:35 Sunny 65 18.6 31 -0.6 27 27 NW 20 31 29.71 1006 10 16.0934 0 0
4:55 pm 16:55 Sunny 64 17.8 31 -0.7 29 29 NW 22 35 29.71 1006 10 16.0934 0 0
5:15 pm 17:15 Sunny 63 17.1 31 -0.8 30 30 NW 17 28 29.77 1008 10 16.0934 0 0
5:35 pm 17:35 Sunny 60 15.5 30 -1.1 32 32 NW 14 22 29.77 1008 10 16.0934 0 0
5:55 pm 17:55 Clear 58 14.5 29 -1.6 33 33 NNW 18 30 29.8 1009 10 16.0934 0 0
6:15 pm 18:15 Clear 57 13.7 28 -2.5 33 33 NW 17 28 29.85 1011 10 16.0934 0 0
6:35 pm 18:35 Clear 56 13.5 26 -3.5 31 31 NNW 17 28 29.85 1011 10 16.0934 0 0
6:55 pm 18:55 Clear 54 12 26 -3.5 34 34 NNW 15 24 29.88 1012 10 16.0934 0 0
7:15 pm 19:15 Partly Cloudy 53 11.5 26 -3.5 35 35 NW 17 28 29.88 1012 10 16.0934 0 0
7:35 pm 19:35 Partly Cloudy 52 11.3 26 -3.1 37 37 NW 13 20 29.94 1014 10 16.0934 0 0
7:55 pm 19:55 Clear 51 10.6 28 -2 42 42 NW 15 24 29.94 1014 10 16.0934 0 0
8:15 pm 20:15 Clear 49 9.7 30 -1.3 47 47 NW 12 19 29.97 1015 10 16.0934 0 0
8:35 pm 20:35 Clear 50 10 31 -0.8 47 47 NW 12 19 29.97 1015 10 16.0934 0 0
8:55 pm 20:55 Clear 47 8.1 30 -0.9 53 53 NW 10 17 30 1016 10 16.0934 0 0
9:15 pm 21:15 Clear 49 9.6 30 -1 48 48 NW 14 22 30 1016 10 16.0934 0 0
9:35 pm 21:35 Clear 49 9.5 29 -1.7 46 46 NNW 15 24 30 1016 10 16.0934 0 0
9:55 pm 21:55 Clear 49 9.7 28 -2.1 44 44 NNW 15 24 30.03 1017 10 16.0934 0 0
10:15 pm 22:15 Clear 46 7.7 28 -2 51 51 NW 12 19 30.06 1018 10 16.0934 0 0
10:35 pm 22:35 Clear 45 7.4 29 -1.7 53 53 NW 14 22 30.06 1018 10 16.0934 0 0
10:55 pm 22:55 Clear 45 7 31 -0.6 59 59 NW 15 24 30.09 1019 10 16.0934 0 0
11:15 pm 23:15 Clear 44 6.7 31 -0.5 60 60 NW 14 22 30.12 1020 10 16.0934 0 0
11:35 pm 23:35 Clear 45 7.3 32 -0.2 59 59 NNW 26 43 30.12 1020 10 16.0934 0 0
11:55 pm 23:55 Clear 44 6.6 32 0 63 63 NNW 24 39 30.18 1022 10 16.0934 0 0

Powered by AerisWeather